Regional Weather Roundup
Issued by NWS Little Rock, AR

Home | Current Version | Previous Version | Text Only | Print | Product List | Glossary Off
Versions: 1 2 3 4 5 6 7 8 9 10 11 12 13 14 15 16 17 18 19 20 21 22 23 24 25 26 27 28 29 30 31 32 33 34 35 36 37 38 39 40 41 42 43 44 45 46 47 48 49 50

000
ASUS44 KLZK 241505
RWRLZK

WEATHER ROUNDUP FOR ARKANSAS
NATIONAL WEATHER SERVICE LITTLE ROCK AR
1000 AM CDT SUN MAY 24 2015

NOTE: "FAIR" INDICATES FEW OR NO CLOUDS BELOW 12,000 FEET WITH NO
SIGNIFICANT WEATHER AND/OR OBSTRUCTIONS TO VISIBILITY.

ARZ001-003-010-029-241600-
NORTHWEST ARKANSAS

CITY           SKY/WX    TMP DP  RH WIND       PRES   REMARKS
FAYETTEVILLE   LGT RAIN  67  65  93 S17G29    29.91F
FORT SMITH     LGT RAIN  69  65  86 S15       29.93R FOG
HARRISON       MOSUNNY   73  66  78 S17G25    29.96F
BENTONVILLE    CLOUDY    70  64  83 S13G18    29.92R
ROGERS         LGT RAIN  69  67  93 S13G25    29.93R
SILOAM SPGS    CLOUDY    66  61  82 SE8       29.91F
HIGHFILL       LGT RAIN  68  68 100 S14       29.91S
SPRINGDALE     LGT RAIN  68  66  94 S14       29.94S FOG
$$

ARZ004-005-016-241600-
NORTH CENTRAL ARKANSAS

CITY           SKY/WX    TMP DP  RH WIND       PRES   REMARKS
BATESVILLE     CLOUDY    73  70  88 SE5       30.04S
FLIPPIN        PTSUNNY   73  70  88 SE12      29.97F
MTN HOME       PTSUNNY   74  68  81 S10G23    29.98F
$$

ARZ040-041-241600-
WEST CENTRAL ARKANSAS

CITY           SKY/WX    TMP DP  RH WIND       PRES   REMARKS
MENA           CLOUDY    73  70  88 SE8       29.96S
MOUNT IDA      CLOUDY    75  67  76 S8G20     29.95F
$$

ARZ009-017-025-026-028-241600-
NORTHEAST ARKANSAS

CITY           SKY/WX    TMP DP  RH WIND       PRES   REMARKS
CORNING          N/A     79  66  65 S16G22    30.07F
JONESBORO      MOSUNNY   77  66  68 S17       30.06F
NEWPORT        SUNNY     80  69  69 S15       30.05F
WALNUT RIDGE   MOSUNNY   79  64  61 S23       30.05F
BLYTHEVILLE    SUNNY     79  65  62 S17G24    30.10F
$$

ARZ022-023-033-042-044-241600-
CENTRAL ARKANSAS

CITY           SKY/WX    TMP DP  RH WIND       PRES   REMARKS
LITTLE ROCK    CLOUDY    78  68  71 S15G28    30.02S
N LITTLE ROCK  CLOUDY    75  70  86 S13G23    30.02S
SEARCY         PTSUNNY   78  70  76 S17G23    30.04F
HOT SPRINGS    CLOUDY    76  68  76 S12G20    29.99F
RUSSELLVILLE   PTSUNNY   78  70  76 VRB7      29.96F
CLINTON        PTSUNNY   75  72  88 SE10      30.02S
$$

ARZ036-241600-
EAST ARKANSAS

CITY           SKY/WX    TMP DP  RH WIND       PRES   REMARKS
WEST MEMPHIS   SUNNY     78  68  71 S20G25    30.08F
$$

ARZ050-053-066-070-073-241600-
SOUTHWEST ARKANSAS

CITY           SKY/WX    TMP DP  RH WIND       PRES   REMARKS
ARKADELPHIA    PTSUNNY   80  74  82 SE13      29.99F
CAMDEN         PTSUNNY   79  68  69 NE10G18   30.00F
TEXARKANA      CLOUDY    76  71  85 S14G24    29.95S
EL DORADO      CLOUDY    78  70  76 SE15G25   30.01F
DE QUEEN       CLOUDY    74  71  91 SE6       29.92S
$$

ARZ056-057-069-241600-
SOUTHEAST ARKANSAS

CITY           SKY/WX    TMP DP  RH WIND       PRES   REMARKS
PINE BLUFF     CLOUDY    77  70  79 S15       30.03F
STUTTGART      CLOUDY    79  70  73 MISG      30.04F
MONTICELLO     PTSUNNY   79  71  76 SE8G18    30.04F

$$





USA.gov is the U.S. government's official web portal to all federal, state and local government web resources and services.